SCP
0 0 0 0 0 0 0 0 -0 0 0 0 0 0 0 0 0 0 0 0 0 0 0 0 0 0 -0 -0 -0 -0 -0 -0 -0 -0 -0 -0 -0 -0 0 0 -0 -0 -0 -0 -0 -0 -0 -0 -0
0 0 0 0 0 0 0 0 0 0 0 0 0 0 0 0 0 0 0 -0 0 -0 0 0 0 0 -0 -0 -0 -0 -0 -0 -0 -0 -0 -0 -0 -0 0 0 0 -0 -0 -0 -0 -0 -0 -0 -0
0 0 0 0 0 0 0 0 0 0 0 0 0 0 0 0 0 0 -0 0 0 0 0 0 0 0 -0 -0 -1 -0 -0 -0 -0 -0 -0 -0 -0 -0 0 0 0 0 -0 -0 -0 -0 -0 -0 -0
0 0 0 0 0 0 0 0 0 0 0 0 0 0 1 1 0 0 0 0 0 0 0 0 0 0 0 -0 -0 -0 -0 -0 -0 -0 -0 -0 -0 -0 -0 0 0 0 -0 -0 -0 -0 -0 -0 0
0 0 0 0 0 0 0 0 0 0 0 0 0 0 1 0 0 0 0 0 0 0 0 0 0 0 0 0 -0 -0 -0 -0 -0 -0 -0 -0 -0 -0 0 0 0 0 -0 -0 -0 -0 -0 -0 -0
0 0 0 0 0 0 0 0 0 0 0 0 0 0 0 0 0 0 0 0 0 0 0 0 0 0 0 0 0 0 -0 -0 -0 -0 -0 -0 -0 -0 -0 0 0 0 0 -0 -0 -0 0 0 -0
0 0 0 0 0 -0 0 0 0 0 0 0 0 1 0 0 0 0 0 0 0 0 0 0 0 0 0 0 0 0 0 -0 -0 -0 -0 -0 -0 -0 0 0 0 0 0 0 0 0 0 0 0
0 0 0 0 0 0 -0 0 0 0 0 -0 -0 0 1 0 1 0 0 0 0 0 0 0 0 0 0 0 0 0 0 -0 -0 -0 -0 -0 -0 -0 -0 0 0 0 0 0 0 0 0 0 0
0 0 0 0 0 0 0 0 0 0 0 -0 -0 -0 0 1 1 0 1 0 0 0 0 0 1 0 0 0 0 0 -0 -0 -0 -0 -0 0 0 0 0 0 0 0 0 0 0 0 0 0 0
0 0 0 0 0 0 0 0 0 0 0 -0 0 0 0 1 0 1 1 1 0 0 0 0 0 0 0 0 0 0 0 0 0 0 0 0 0 0 0 0 0 0 0 0 0 0 0 0 0
0 0 0 0 0 0 0 0 0 0 0 0 0 0 0 1 1 1 1 1 0 0 0 0 0 0 0 0 0 0 0 0 0 0 0 0 0 0 0 0 0 0 0 0 0 0 0 0 0
0 0 0 0 0 0 0 0 0 0 0 0 0 0 0 0 0 0 0 0 1 1 0 0 0 0 0 0 0 0 0 0 0 0 0 0 0 0 0 0 0 0 0 0 0 0 0 0 0
0 0 0 0 0 0 0 0 0 0 0 0 0 0 0 0 0 0 0 0 0 1 1 0 0 0 0 0 1 0 0 0 0 0 0 0 0 0 0 0 0 0 0 0 0 0 0 0 0
0 0 0 0 0 0 0 0 0 0 0 0 0 0 0 0 0 0 0 0 0 0 0 1 0 0 1 0 0 0 0 0 0 0 0 0 0 0 0 0 0 0 0 0 0 0 0 0 0
0 0 0 0 0 0 0 0 0 0 0 0 0 0 0 0 0 0 0 0 0 0 0 0 1 0 0 1 1 1 0 0 0 0 0 0 0 0 0 0 0 0 0 0 0 0 0 0 0
0 0 0 0 0 0 0 0 0 0 0 0 0 0 0 0 0 0 0 0 0 0 0 0 1 1 1 1 1 1 0 0 0 0 0 0 0 0 0 0 0 0 0 0 0 0 0 0 0
0 0 0 0 0 0 0 0 0 0 0 0 0 0 0 0 0 0 0 0 0 0 0 0 1 1 1 1 1 1 0 0 0 0 0 0 0 0 0 0 0 0 0 0 0 0 0 0 0
0 0 0 0 0 0 0 0 0 0 -0 -0 0 0 0 0 0 0 0 0 0 0 0 0 0 1 1 1 1 1 1 0 0 0 0 0 0 0 0 0 0 0 0 0 0 0 0 0 0
0 0 0 0 0 0 0 0 0 0 0 0 0 0 0 0 0 0 0 0 0 0 0 0 0 0 0 1 1 1 0 1 0 0 0 0 0 0 0 0 0 0 0 0 0 0 0 0 0
0 0 0 0 0 0 0 0 0 0 0 0 0 0 0 0 0 0 0 0 0 0 0 0 0 0 0 0 1 1 1 1 0 0 0 0 0 0 0 0 0 0 0 0 0 0 0 0 0
0 0 0 0 0 0 0 0 0 0 0 0 0 0 0 0 -0 0 0 0 0 0 0 0 0 0 0 0 1 1 1 1 0 0 0 0 0 0 0 0 0 0 0 0 0 0 0 0 0
0 0 0 0 0 0 0 0 0 0 0 0 0 0 0 0 0 0 0 0 0 0 0 0 0 0 0 0 0 1 1 1 0 0 0 0 0 0 0 0 0 0 0 0 0 0 0 0 0
0 0 0 0 0 0 0 0 0 0 0 0 0 0 0 0 0 0 0 0 0 0 0 0 0 0 0 0 0 0 1 0 0 0 0 0 0 0 0 0 0 0 0 0 0 0 0 0 0
0 0 -0 -0 0 0 0 0 0 0 0 0 0 0 0 0 0 0 0 0 0 0 0 0 0 0 0 0 0 0 1 1 1 0 0 0 0 0 0 0 0 0 0 0 0 0 0 0 0
0 0 0 -0 -0 0 0 0 0 0 0 0 0 0 0 0 0 0 0 0 0 0 0 0 0 0 0 0 0 0 0 0 1 0 0 0 0 0 0 0 0 0 0 0 0 0 0 0 0
0 0 0 -0 -0 0 -0 0 0 0 0 0 0 0 0 0 0 0 0 0 0 0 0 0 0 0 0 0 0 0 0 0 0 0 0 0 0 0 0 0 0 0 0 0 0 0 0 0 0
0 0 0 0 -0 0 0 0 0 0 -0 -0 0 0 0 0 0 0 0 0 0 0 0 0 0 0 0 0 0 0 0 0 0 0 0 0 0 0 0 0 0 0 0 0 0 0 0 0 0
0 0 0 -0 0 0 0 0 0 -0 0 -0 -0 -0 0 0 0 0 0 0 0 0 0 0 0 0 0 0 0 0 0 0 0 0 1 0 0 0 0 0 0 0 0 0 0 0 0 0 0
-0 0 0 -0 -0 0 -0 -0 -0 -0 0 0 0 0 0 0 0 0 0 0 0 0 0 0 0 0 0 0 0 0 0 0 0 0 0 1 0 0 0 0 0 0 0 0 0 0 0 0 0
0 0 -0 0 -0 -0 0 -0 -0 0 -0 -0 0 0 0 -0 -0 0 0 0 0 0 0 0 0 0 0 0 0 0 0 0 0 0 0 0 0 0 0 0 0 0 0 0 0 0 0 0 0
Wind_Speed_500mb
9 4 9 7 7 9 10 10 5 14 17 12 56 19 24 10 12 8 29 38 37 42 47 49 47 46 46 46 45 46 47 50 48 50 53 53 60 59 59 56 52 55 52 53 57 46 37 37 38
2 12 9 8 9 2 9 7 7 9 30 70 59 17 2 4 11 27 41 41 31 42 44 48 48 45 45 46 45 47 49 50 51 52 55 56 59 57 57 54 53 51 49 50 52 45 41 41 37
7 10 3 7 7 10 7 4 13 44 73 59 12 14 17 11 19 50 38 42 38 41 42 48 46 43 44 45 45 47 51 52 52 54 57 59 61 55 56 55 51 48 48 49 49 45 44 42 44
8 6 7 7 13 10 8 14 20 27 53 41 18 4 7 9 28 26 45 41 38 37 42 45 44 42 42 42 45 49 51 53 54 56 57 62 64 59 57 57 50 45 46 47 50 50 49 52 49
3 5 6 2 11 7 7 16 36 17 33 38 52 6 10 7 1 24 35 28 30 32 40 42 42 39 39 40 45 49 52 55 56 57 58 62 61 57 57 57 51 45 46 49 54 55 56 52 46
5 5 6 7 11 7 11 24 28 16 42 51 48 9 6 5 14 32 27 25 18 21 38 40 38 37 37 40 43 50 53 56 57 56 58 60 63 62 60 57 50 48 47 55 60 61 57 50 43
10 7 7 7 9 10 4 23 19 23 26 33 51 6 4 13 28 31 31 24 21 30 33 36 37 37 37 39 42 48 54 57 58 57 59 61 62 63 62 57 50 51 57 63 67 63 56 48 40
5 7 1 5 4 10 5 37 26 40 40 34 47 9 4 13 27 23 17 25 26 31 29 30 35 38 39 40 42 47 54 58 57 57 61 64 59 64 64 57 50 53 61 70 71 63 55 46 35
6 7 3 6 4 10 35 14 49 32 25 21 40 31 10 17 15 11 23 32 32 30 31 31 34 38 39 40 45 49 53 56 55 55 58 62 60 65 62 57 52 60 68 74 68 59 54 42 36
8 6 11 10 8 12 26 16 23 16 36 23 51 29 8 6 11 21 27 31 29 33 34 33 36 37 40 43 49 53 55 57 60 62 65 64 72 70 59 51 48 65 74 74 70 62 52 43 40
2 9 6 15 25 21 12 16 19 30 21 53 56 49 17 20 19 25 28 34 34 30 33 33 36 38 41 48 53 58 61 64 67 66 67 67 69 69 60 54 55 69 78 76 72 63 52 48 42
7 10 4 14 26 12 7 11 34 47 33 53 64 51 35 39 10 29 25 38 43 45 41 37 41 41 46 49 55 62 66 69 71 70 68 71 72 67 65 63 58 69 81 78 74 64 54 48 42
9 5 17 22 13 17 12 13 29 55 47 52 58 72 69 55 46 29 20 23 42 53 50 45 43 45 49 53 57 65 70 73 75 74 71 70 63 68 71 67 70 78 82 80 73 67 58 46 47
15 15 19 7 27 18 13 19 13 49 41 60 60 70 69 68 63 56 38 27 27 47 61 56 50 45 50 55 60 65 70 74 77 76 73 74 71 79 79 76 71 75 80 80 75 70 59 52 47
23 11 9 20 43 13 24 23 28 44 55 69 71 70 69 74 66 65 59 51 36 34 57 67 66 57 54 55 60 67 69 76 76 77 77 75 75 77 78 74 72 83 93 80 75 70 64 55 50
12 10 8 9 31 19 22 6 28 49 59 60 64 78 80 77 75 66 62 55 45 24 44 67 83 74 63 62 63 67 73 77 80 79 79 75 78 60 51 64 81 88 96 87 74 73 66 55 49
15 9 7 13 19 13 19 3 35 53 60 60 63 67 77 89 83 79 68 61 57 36 19 50 75 84 78 66 67 69 74 76 82 83 83 80 67 51 49 63 64 67 98 94 80 77 67 62 56
17 12 7 3 16 18 21 12 22 46 56 53 59 65 76 78 85 82 72 60 55 45 7 31 60 73 77 77 72 68 73 76 82 81 81 78 73 62 53 52 56 60 81 85 85 77 70 60 53
21 14 11 16 13 24 18 20 21 43 63 62 64 70 71 77 74 81 73 64 55 46 26 10 45 59 58 80 84 82 79 89 79 83 79 79 74 71 69 61 55 61 77 85 88 81 74 64 62
24 11 10 19 34 24 17 18 16 40 46 51 61 69 75 77 91 90 85 74 66 56 45 32 17 46 58 66 90 79 80 82 82 82 83 90 80 83 81 84 68 67 77 83 89 86 79 71 67
23 16 16 26 32 20 12 6 23 29 49 60 67 64 70 75 77 83 89 89 75 66 52 47 33 20 47 65 70 83 65 70 77 82 78 92 89 87 81 74 85 85 88 89 91 93 91 84 73
30 17 36 40 21 9 6 6 22 34 35 49 63 70 72 76 81 79 82 86 82 78 58 51 42 18 24 50 50 82 81 81 84 91 90 97 93 87 92 70 93 75 75 86 92 96 97 91 80
31 34 42 41 34 20 11 11 15 18 31 39 54 67 71 74 78 80 83 77 75 71 65 56 44 23 11 24 52 51 86 84 72 81 92 101 107 107 91 88 89 89 91 87 84 95 92 95 86
42 32 51 32 20 16 20 12 14 14 27 31 49 62 68 76 78 84 79 75 78 72 70 58 47 32 17 11 44 48 66 84 79 73 87 100 112 105 94 94 99 98 99 106 94 84 87 93 97
41 34 11 7 5 3 21 27 7 22 24 35 44 54 61 72 74 80 88 88 80 82 75 69 53 41 31 16 19 47 44 75 86 80 87 96 107 109 104 101 99 108 112 121 111 93 81 83 96
28 5 8 15 10 8 17 11 8 20 38 41 43 46 57 67 73 73 81 84 82 80 79 72 64 49 38 28 15 27 61 40 59 88 90 91 98 98 94 102 98 100 115 120 110 106 89 88 86
23 19 30 10 21 9 8 9 15 32 33 48 50 55 59 64 68 67 71 83 83 82 74 71 68 59 47 38 26 17 36 24 49 79 91 78 91 91 87 97 100 95 110 112 108 103 100 84 92
10 21 13 9 12 8 7 9 16 37 31 33 43 53 59 58 64 66 66 76 82 79 79 72 69 64 57 42 29 23 20 42 50 53 88 79 83 92 92 98 106 98 110 107 101 93 99 103 86
14 13 9 4 11 7 4 7 13 22 27 25 41 51 54 60 63 65 67 67 78 90 86 83 78 71 65 50 36 25 16 22 31 63 82 79 83 92 82 98 106 109 116 118 115 103 95 94 80
14 10 10 6 13 9 5 5 10 19 34 37 40 50 57 60 64 67 68 72 73 87 93 92 86 83 69 61 43 36 26 17 19 43 32 54 82 86 89 99 96 106 117 121 118 123 105 98 97
Wind_Direction_500mb
313 170 132 115 53 57 269 272 267 299 322 281 305 293 258 223 161 201 149 162 172 187 177 178 181 180 178 178 177 178 180 174 176 170 169 167 164 162 160 159 156 152 149 146 151 149 147 144 143
280 138 124 103 94 82 278 256 329 281 291 300 303 318 205 184 158 151 160 169 172 179 179 178 180 181 181 180 181 181 182 180 178 175 175 171 167 163 162 159 158 156 152 149 151 151 148 145 146
162 144 114 100 131 199 231 261 299 316 314 300 281 257 228 186 174 155 156 162 165 180 182 180 181 183 185 184 183 184 183 182 182 180 178 174 167 165 168 160 163 160 155 154 157 153 150 150 150
133 161 74 94 236 255 240 316 306 320 330 347 305 276 95 309 149 160 154 155 160 180 182 180 181 185 186 186 186 186 185 182 185 184 181 177 170 166 172 165 167 163 159 160 156 153 153 152 153
114 98 69 259 258 255 273 313 305 310 331 355 348 37 2 86 133 161 146 151 164 174 176 178 181 187 189 188 186 187 186 185 186 185 182 180 172 169 175 169 169 165 164 158 156 156 154 156 154
72 75 63 251 260 287 315 308 318 338 344 353 358 7 351 203 198 154 157 154 154 175 172 177 181 189 190 190 187 187 188 188 187 187 186 182 176 174 181 175 171 167 166 161 157 156 156 155 155
113 90 211 258 289 331 293 355 332 327 334 350 8 45 229 170 162 165 165 167 165 171 175 181 185 189 189 191 192 190 190 190 189 189 186 184 182 177 187 174 168 170 164 160 158 158 157 156 152
166 89 289 273 329 299 277 334 316 337 315 343 16 347 296 199 180 175 180 175 171 174 183 191 192 191 190 190 195 194 192 193 192 193 190 187 181 175 184 172 166 164 165 161 159 159 161 160 151
178 70 233 272 319 266 308 358 323 334 303 44 29 24 91 210 191 199 197 189 183 189 196 204 202 196 196 192 193 194 195 196 194 193 193 187 177 183 180 169 165 165 165 163 163 165 163 160 150
109 117 226 209 247 277 314 307 322 348 353 33 16 25 22 239 196 230 229 218 216 210 209 214 208 203 200 196 194 193 193 194 192 194 191 188 182 184 178 173 170 166 168 167 165 169 166 161 154
84 190 225 275 287 316 308 359 351 1 23 357 1 3 321 231 234 239 245 247 251 235 233 220 209 211 210 200 196 193 194 193 195 196 195 192 188 188 185 179 170 168 170 169 168 172 169 161 158
346 242 84 322 325 355 348 4 74 38 7 14 38 55 55 49 302 335 291 245 250 237 233 225 210 214 212 209 201 197 196 196 198 198 199 195 197 190 189 188 181 174 175 176 174 174 169 161 166
188 22 347 325 345 35 360 11 93 29 21 24 37 41 44 42 30 22 345 267 250 263 246 232 218 215 213 211 207 203 201 201 200 202 205 200 205 198 193 196 190 177 179 181 176 175 171 171 174
317 324 324 12 356 30 12 29 66 1 31 32 28 33 35 31 23 19 10 352 237 243 252 246 230 227 219 217 213 208 206 204 206 206 206 205 209 204 204 203 201 201 180 180 178 176 174 178 182
302 341 8 13 352 21 351 46 12 26 40 38 26 16 17 24 17 15 8 4 343 238 227 243 243 232 226 221 216 214 208 206 207 209 210 209 211 211 213 207 207 195 181 184 181 179 180 181 185
11 55 28 329 15 344 3 72 12 22 42 36 27 19 12 9 12 10 7 1 358 299 223 223 240 237 232 222 217 216 210 207 209 210 211 213 213 204 208 214 208 197 178 183 179 187 180 187 189
12 333 334 319 29 352 44 62 19 26 37 32 24 20 13 7 4 6 5 3 359 352 250 225 228 237 233 226 221 217 214 211 210 212 211 212 212 193 203 201 188 194 186 180 187 185 188 187 193
312 315 316 0 329 352 81 63 29 31 40 32 22 19 14 8 3 1 0 1 359 1 321 226 219 232 233 229 224 218 217 214 214 213 213 212 207 194 179 196 196 189 189 190 190 189 193 192 191
6 342 343 329 336 341 92 71 40 31 34 26 20 17 12 7 359 1 1 360 359 2 2 261 221 221 216 229 222 216 212 211 211 214 214 215 201 197 183 186 199 192 189 190 192 193 197 196 197
12 350 324 303 339 329 122 88 41 45 40 32 20 15 10 2 3 1 0 1 359 358 355 349 276 216 215 217 229 222 219 218 217 209 211 208 202 196 192 186 191 199 201 197 197 200 197 203 207
339 280 320 306 313 278 144 94 26 19 31 24 21 12 11 6 360 359 358 1 357 356 356 352 334 260 221 220 225 222 219 210 207 214 210 208 202 198 201 194 197 196 204 203 202 204 207 206 205
313 333 321 297 296 243 51 280 24 2 21 22 13 10 5 360 0 359 359 358 359 356 351 353 349 304 234 221 228 223 221 212 225 217 208 210 203 203 194 198 193 199 203 209 208 210 213 214 209
308 318 293 270 259 249 236 91 340 6 13 9 8 4 1 358 359 357 358 359 354 357 355 352 352 337 269 220 225 218 224 228 229 219 211 208 207 209 208 206 198 198 199 214 214 217 216 222 222
308 315 300 267 249 241 216 116 25 17 13 2 5 2 356 355 356 1 359 359 355 2 359 354 352 356 330 276 210 222 223 222 226 219 206 211 212 212 215 213 208 203 204 214 213 221 227 225 222
343 345 319 329 133 337 74 70 64 26 17 13 4 360 357 2 360 357 359 356 359 1 1 357 353 352 348 335 237 227 212 228 224 229 214 214 210 215 216 215 210 204 206 212 215 223 227 230 226
315 310 302 321 358 84 42 68 58 40 23 13 5 359 4 6 6 358 359 356 1 360 358 360 356 351 347 350 311 243 229 236 229 229 223 219 217 220 220 215 215 215 213 215 220 225 228 230 226
319 336 304 247 259 63 34 48 68 22 23 13 6 5 7 4 0 359 359 3 1 360 355 2 1 354 349 347 355 288 238 238 247 222 232 230 226 221 222 222 218 219 214 215 221 225 223 232 231
317 313 340 352 351 67 30 60 5 350 4 358 359 2 359 1 359 357 358 1 5 0 360 12 9 0 353 347 357 347 264 236 219 228 225 227 226 219 224 225 217 218 214 217 223 225 230 227 223
349 355 334 241 20 32 66 52 334 337 343 335 344 349 346 344 348 355 358 359 5 10 6 11 18 9 0 348 354 350 310 253 226 232 235 232 232 229 231 228 221 219 221 220 220 223 228 233 234
12 344 331 60 356 11 76 232 332 338 342 335 330 342 350 349 341 346 1 5 2 7 9 11 18 18 10 1 345 353 337 295 257 245 238 235 236 241 231 227 228 228 225 223 224 223 229 231 225
Wind_Speed_850mb
9 4 9 7 7 9 10 10 5 14 17 12 56 19 24 10 12 8 29 38 37 42 47 49 47 46 46 46 45 46 47 50 48 50 53 53 60 59 59 56 52 55 52 53 57 46 37 37 38
2 12 9 8 9 2 9 7 7 9 30 70 59 17 2 4 11 27 41 41 31 42 44 48 48 45 45 46 45 47 49 50 51 52 55 56 59 57 57 54 53 51 49 50 52 45 41 41 37
7 10 3 7 7 10 7 4 13 44 73 59 12 14 17 11 19 50 38 42 38 41 42 48 46 43 44 45 45 47 51 52 52 54 57 59 61 55 56 55 51 48 48 49 49 45 44 42 44
8 6 7 7 13 10 8 14 20 27 53 41 18 4 7 9 28 26 45 41 38 37 42 45 44 42 42 42 45 49 51 53 54 56 57 62 64 59 57 57 50 45 46 47 50 50 49 52 49
3 5 6 2 11 7 7 16 36 17 33 38 52 6 10 7 1 24 35 28 30 32 40 42 42 39 39 40 45 49 52 55 56 57 58 62 61 57 57 57 51 45 46 49 54 55 56 52 46
5 5 6 7 11 7 11 24 28 16 42 51 48 9 6 5 14 32 27 25 18 21 38 40 38 37 37 40 43 50 53 56 57 56 58 60 63 62 60 57 50 48 47 55 60 61 57 50 43
10 7 7 7 9 10 4 23 19 23 26 33 51 6 4 13 28 31 31 24 21 30 33 36 37 37 37 39 42 48 54 57 58 57 59 61 62 63 62 57 50 51 57 63 67 63 56 48 40
5 7 1 5 4 10 5 37 26 40 40 34 47 9 4 13 27 23 17 25 26 31 29 30 35 38 39 40 42 47 54 58 57 57 61 64 59 64 64 57 50 53 61 70 71 63 55 46 35
6 7 3 6 4 10 35 14 49 32 25 21 40 31 10 17 15 11 23 32 32 30 31 31 34 38 39 40 45 49 53 56 55 55 58 62 60 65 62 57 52 60 68 74 68 59 54 42 36
8 6 11 10 8 12 26 16 23 16 36 23 51 29 8 6 11 21 27 31 29 33 34 33 36 37 40 43 49 53 55 57 60 62 65 64 72 70 59 51 48 65 74 74 70 62 52 43 40
2 9 6 15 25 21 12 16 19 30 21 53 56 49 17 20 19 25 28 34 34 30 33 33 36 38 41 48 53 58 61 64 67 66 67 67 69 69 60 54 55 69 78 76 72 63 52 48 42
7 10 4 14 26 12 7 11 34 47 33 53 64 51 35 39 10 29 25 38 43 45 41 37 41 41 46 49 55 62 66 69 71 70 68 71 72 67 65 63 58 69 81 78 74 64 54 48 42
9 5 17 22 13 17 12 13 29 55 47 52 58 72 69 55 46 29 20 23 42 53 50 45 43 45 49 53 57 65 70 73 75 74 71 70 63 68 71 67 70 78 82 80 73 67 58 46 47
15 15 19 7 27 18 13 19 13 49 41 60 60 70 69 68 63 56 38 27 27 47 61 56 50 45 50 55 60 65 70 74 77 76 73 74 71 79 79 76 71 75 80 80 75 70 59 52 47
23 11 9 20 43 13 24 23 28 44 55 69 71 70 69 74 66 65 59 51 36 34 57 67 66 57 54 55 60 67 69 76 76 77 77 75 75 77 78 74 72 83 93 80 75 70 64 55 50
12 10 8 9 31 19 22 6 28 49 59 60 64 78 80 77 75 66 62 55 45 24 44 67 83 74 63 62 63 67 73 77 80 79 79 75 78 60 51 64 81 88 96 87 74 73 66 55 49
15 9 7 13 19 13 19 3 35 53 60 60 63 67 77 89 83 79 68 61 57 36 19 50 75 84 78 66 67 69 74 76 82 83 83 80 67 51 49 63 64 67 98 94 80 77 67 62 56
17 12 7 3 16 18 21 12 22 46 56 53 59 65 76 78 85 82 72 60 55 45 7 31 60 73 77 77 72 68 73 76 82 81 81 78 73 62 53 52 56 60 81 85 85 77 70 60 53
21 14 11 16 13 24 18 20 21 43 63 62 64 70 71 77 74 81 73 64 55 46 26 10 45 59 58 80 84 82 79 89 79 83 79 79 74 71 69 61 55 61 77 85 88 81 74 64 62
24 11 10 19 34 24 17 18 16 40 46 51 61 69 75 77 91 90 85 74 66 56 45 32 17 46 58 66 90 79 80 82 82 82 83 90 80 83 81 84 68 67 77 83 89 86 79 71 67
23 16 16 26 32 20 12 6 23 29 49 60 67 64 70 75 77 83 89 89 75 66 52 47 33 20 47 65 70 83 65 70 77 82 78 92 89 87 81 74 85 85 88 89 91 93 91 84 73
30 17 36 40 21 9 6 6 22 34 35 49 63 70 72 76 81 79 82 86 82 78 58 51 42 18 24 50 50 82 81 81 84 91 90 97 93 87 92 70 93 75 75 86 92 96 97 91 80
31 34 42 41 34 20 11 11 15 18 31 39 54 67 71 74 78 80 83 77 75 71 65 56 44 23 11 24 52 51 86 84 72 81 92 101 107 107 91 88 89 89 91 87 84 95 92 95 86
42 32 51 32 20 16 20 12 14 14 27 31 49 62 68 76 78 84 79 75 78 72 70 58 47 32 17 11 44 48 66 84 79 73 87 100 112 105 94 94 99 98 99 106 94 84 87 93 97
41 34 11 7 5 3 21 27 7 22 24 35 44 54 61 72 74 80 88 88 80 82 75 69 53 41 31 16 19 47 44 75 86 80 87 96 107 109 104 101 99 108 112 121 111 93 81 83 96
28 5 8 15 10 8 17 11 8 20 38 41 43 46 57 67 73 73 81 84 82 80 79 72 64 49 38 28 15 27 61 40 59 88 90 91 98 98 94 102 98 100 115 120 110 106 89 88 86
23 19 30 10 21 9 8 9 15 32 33 48 50 55 59 64 68 67 71 83 83 82 74 71 68 59 47 38 26 17 36 24 49 79 91 78 91 91 87 97 100 95 110 112 108 103 100 84 92
10 21 13 9 12 8 7 9 16 37 31 33 43 53 59 58 64 66 66 76 82 79 79 72 69 64 57 42 29 23 20 42 50 53 88 79 83 92 92 98 106 98 110 107 101 93 99 103 86
14 13 9 4 11 7 4 7 13 22 27 25 41 51 54 60 63 65 67 67 78 90 86 83 78 71 65 50 36 25 16 22 31 63 82 79 83 92 82 98 106 109 116 118 115 103 95 94 80
14 10 10 6 13 9 5 5 10 19 34 37 40 50 57 60 64 67 68 72 73 87 93 92 86 83 69 61 43 36 26 17 19 43 32 54 82 86 89 99 96 106 117 121 118 123 105 98 97
Wind_Direction_850mb
313 170 132 115 53 57 269 272 267 299 322 281 305 293 258 223 161 201 149 162 172 187 177 178 181 180 178 178 177 178 180 174 176 170 169 167 164 162 160 159 156 152 149 146 151 149 147 144 143
280 138 124 103 94 82 278 256 329 281 291 300 303 318 205 184 158 151 160 169 172 179 179 178 180 181 181 180 181 181 182 180 178 175 175 171 167 163 162 159 158 156 152 149 151 151 148 145 146
162 144 114 100 131 199 231 261 299 316 314 300 281 257 228 186 174 155 156 162 165 180 182 180 181 183 185 184 183 184 183 182 182 180 178 174 167 165 168 160 163 160 155 154 157 153 150 150 150
133 161 74 94 236 255 240 316 306 320 330 347 305 276 95 309 149 160 154 155 160 180 182 180 181 185 186 186 186 186 185 182 185 184 181 177 170 166 172 165 167 163 159 160 156 153 153 152 153
114 98 69 259 258 255 273 313 305 310 331 355 348 37 2 86 133 161 146 151 164 174 176 178 181 187 189 188 186 187 186 185 186 185 182 180 172 169 175 169 169 165 164 158 156 156 154 156 154
72 75 63 251 260 287 315 308 318 338 344 353 358 7 351 203 198 154 157 154 154 175 172 177 181 189 190 190 187 187 188 188 187 187 186 182 176 174 181 175 171 167 166 161 157 156 156 155 155
113 90 211 258 289 331 293 355 332 327 334 350 8 45 229 170 162 165 165 167 165 171 175 181 185 189 189 191 192 190 190 190 189 189 186 184 182 177 187 174 168 170 164 160 158 158 157 156 152
166 89 289 273 329 299 277 334 316 337 315 343 16 347 296 199 180 175 180 175 171 174 183 191 192 191 190 190 195 194 192 193 192 193 190 187 181 175 184 172 166 164 165 161 159 159 161 160 151
178 70 233 272 319 266 308 358 323 334 303 44 29 24 91 210 191 199 197 189 183 189 196 204 202 196 196 192 193 194 195 196 194 193 193 187 177 183 180 169 165 165 165 163 163 165 163 160 150
109 117 226 209 247 277 314 307 322 348 353 33 16 25 22 239 196 230 229 218 216 210 209 214 208 203 200 196 194 193 193 194 192 194 191 188 182 184 178 173 170 166 168 167 165 169 166 161 154
84 190 225 275 287 316 308 359 351 1 23 357 1 3 321 231 234 239 245 247 251 235 233 220 209 211 210 200 196 193 194 193 195 196 195 192 188 188 185 179 170 168 170 169 168 172 169 161 158
346 242 84 322 325 355 348 4 74 38 7 14 38 55 55 49 302 335 291 245 250 237 233 225 210 214 212 209 201 197 196 196 198 198 199 195 197 190 189 188 181 174 175 176 174 174 169 161 166
188 22 347 325 345 35 360 11 93 29 21 24 37 41 44 42 30 22 345 267 250 263 246 232 218 215 213 211 207 203 201 201 200 202 205 200 205 198 193 196 190 177 179 181 176 175 171 171 174
317 324 324 12 356 30 12 29 66 1 31 32 28 33 35 31 23 19 10 352 237 243 252 246 230 227 219 217 213 208 206 204 206 206 206 205 209 204 204 203 201 201 180 180 178 176 174 178 182
302 341 8 13 352 21 351 46 12 26 40 38 26 16 17 24 17 15 8 4 343 238 227 243 243 232 226 221 216 214 208 206 207 209 210 209 211 211 213 207 207 195 181 184 181 179 180 181 185
11 55 28 329 15 344 3 72 12 22 42 36 27 19 12 9 12 10 7 1 358 299 223 223 240 237 232 222 217 216 210 207 209 210 211 213 213 204 208 214 208 197 178 183 179 187 180 187 189
12 333 334 319 29 352 44 62 19 26 37 32 24 20 13 7 4 6 5 3 359 352 250 225 228 237 233 226 221 217 214 211 210 212 211 212 212 193 203 201 188 194 186 180 187 185 188 187 193
312 315 316 0 329 352 81 63 29 31 40 32 22 19 14 8 3 1 0 1 359 1 321 226 219 232 233 229 224 218 217 214 214 213 213 212 207 194 179 196 196 189 189 190 190 189 193 192 191
6 342 343 329 336 341 92 71 40 31 34 26 20 17 12 7 359 1 1 360 359 2 2 261 221 221 216 229 222 216 212 211 211 214 214 215 201 197 183 186 199 192 189 190 192 193 197 196 197
12 350 324 303 339 329 122 88 41 45 40 32 20 15 10 2 3 1 0 1 359 358 355 349 276 216 215 217 229 222 219 218 217 209 211 208 202 196 192 186 191 199 201 197 197 200 197 203 207
339 280 320 306 313 278 144 94 26 19 31 24 21 12 11 6 360 359 358 1 357 356 356 352 334 260 221 220 225 222 219 210 207 214 210 208 202 198 201 194 197 196 204 203 202 204 207 206 205
313 333 321 297 296 243 51 280 24 2 21 22 13 10 5 360 0 359 359 358 359 356 351 353 349 304 234 221 228 223 221 212 225 217 208 210 203 203 194 198 193 199 203 209 208 210 213 214 209
308 318 293 270 259 249 236 91 340 6 13 9 8 4 1 358 359 357 358 359 354 357 355 352 352 337 269 220 225 218 224 228 229 219 211 208 207 209 208 206 198 198 199 214 214 217 216 222 222
308 315 300 267 249 241 216 116 25 17 13 2 5 2 356 355 356 1 359 359 355 2 359 354 352 356 330 276 210 222 223 222 226 219 206 211 212 212 215 213 208 203 204 214 213 221 227 225 222
343 345 319 329 133 337 74 70 64 26 17 13 4 360 357 2 360 357 359 356 359 1 1 357 353 352 348 335 237 227 212 228 224 229 214 214 210 215 216 215 210 204 206 212 215 223 227 230 226
315 310 302 321 358 84 42 68 58 40 23 13 5 359 4 6 6 358 359 356 1 360 358 360 356 351 347 350 311 243 229 236 229 229 223 219 217 220 220 215 215 215 213 215 220 225 228 230 226
319 336 304 247 259 63 34 48 68 22 23 13 6 5 7 4 0 359 359 3 1 360 355 2 1 354 349 347 355 288 238 238 247 222 232 230 226 221 222 222 218 219 214 215 221 225 223 232 231
317 313 340 352 351 67 30 60 5 350 4 358 359 2 359 1 359 357 358 1 5 0 360 12 9 0 353 347 357 347 264 236 219 228 225 227 226 219 224 225 217 218 214 217 223 225 230 227 223
349 355 334 241 20 32 66 52 334 337 343 335 344 349 346 344 348 355 358 359 5 10 6 11 18 9 0 348 354 350 310 253 226 232 235 232 232 229 231 228 221 219 221 220 220 223 228 233 234
12 344 331 60 356 11 76 232 332 338 342 335 330 342 350 349 341 346 1 5 2 7 9 11 18 18 10 1 345 353 337 295 257 245 238 235 236 241 231 227 228 228 225 223 224 223 229 231 225